Location: Lloyd Harbor
(40.9034°N, 73.4598°W)
Time: 09:23:56
(UTC+00:00)

Daily predictions for brighter satellites

Satellite Brightness Start Highest point End
(mag) Time Altitude Azimuth Time Altitude Azimuth Time Altitude Azimuth
Starlink AQ 2.7 22:17:39 10° SW 22:20:28 80° NW 22:23:19 10° NE
Cosmos 2184 Rocket 4.0 22:14:48 10° S 22:20:54 64° E 22:26:59 10° NNE
YAOGAN 6 3.6 22:18:28 10° SE 22:21:37 27° ENE 22:24:46 10° NNE
Starlink AS 2.7 22:20:17 10° SW 22:23:05 75° NW 22:25:56 10° NE
Okean 1-7 Rocket 3.9 22:18:46 10° SSW 22:23:08 72° W 22:27:33 10° N
Starlink BA 2.7 22:20:28 10° SW 22:23:18 75° NW 22:26:08 10° NE
Starlink AU 2.7 22:20:40 10° SW 22:23:29 74° NW 22:26:20 10° NE
Starlink AT 2.7 22:20:54 10° SW 22:23:42 74° NW 22:26:32 10° NE
Starlink BB 2.7 22:21:05 10° WSW 22:23:54 73° NW 22:26:44 10° NE
ATLAS 5 CENTAUR R/B 2.8 22:20:02 10° WSW 22:23:57 38° NW 22:28:18 10° NNE
Starlink BC 2.7 22:21:18 10° WSW 22:24:07 73° NW 22:26:57 10° NE
Starlink BK 2.7 22:21:30 10° WSW 22:24:19 72° NW 22:27:09 10° NE
Starlink AY 2.7 22:21:42 10° WSW 22:24:32 72° NW 22:27:22 10° NE
Starlink AW 2.8 22:21:57 10° WSW 22:24:47 72° NW 22:27:38 10° NE
Starlink BJ 2.8 22:22:05 10° WSW 22:24:53 71° NW 22:27:44 10° NE
Cosmos 1242 Rocket 3.0 22:21:52 10° SSE 22:25:05 37° E 22:28:22 10° NNE
Starlink AV 2.8 22:22:16 10° WSW 22:25:05 71° NW 22:27:55 10° NE
Starlink BD 2.8 22:22:29 10° WSW 22:25:19 71° NW 22:28:08 10° NE
Starlink BE 2.8 22:22:44 10° WSW 22:25:33 70° NW 22:28:26 10° NE
Cosmos 2298 Rocket 4.0 22:20:23 10° SSW 22:25:40 77° ESE 22:30:59 10° NNE
Starlink BM 2.8 22:22:53 10° WSW 22:25:42 70° NW 22:28:33 10° NE
Starlink AX 2.8 22:23:08 10° WSW 22:25:58 69° NW 22:28:49 10° NE
Starlink BH 2.8 22:23:19 10° WSW 22:26:08 69° NW 22:28:58 10° NE
Starlink AZ 2.8 22:23:30 10° WSW 22:26:20 69° NW 22:29:10 10° NE
Cosmos 2333 4.2 22:20:44 10° NNW 22:26:26 63° ENE 22:32:02 10° SE
Starlink BG 2.8 22:23:44 10° WSW 22:26:33 68° NW 22:29:23 10° NE
Starlink BF 2.8 22:23:56 10° WSW 22:26:46 68° NW 22:29:36 10° NE
Starlink BL 2.8 22:24:08 10° WSW 22:26:58 68° NW 22:29:50 10° NE
Starlink AH 2.8 22:24:18 10° WSW 22:27:07 67° NW 22:29:57 10° NE
YAOGAN 1 3.9 22:24:10 10° ESE 22:27:10 19° ENE 22:30:11 10° NNE
Starlink AC 2.8 22:24:33 10° WSW 22:27:23 67° NW 22:30:14 10° NE
Starlink X 2.8 22:24:42 10° WSW 22:27:31 66° NW 22:30:22 10° NE
Starlink AE 2.9 22:24:57 10° WSW 22:27:47 66° NW 22:30:39 10° NE
Starlink Z 2.9 22:25:07 10° WSW 22:27:56 66° NW 22:30:46 10° NE
Starlink AK 2.9 22:25:21 10° WSW 22:28:10 65° NW 22:31:00 10° NE
Cosmos 2322 3.7 22:22:37 10° NNW 22:28:18 74° ENE 22:33:56 10° SSE
Starlink AL 2.9 22:25:34 10° WSW 22:28:23 65° NW 22:31:12 10° NE
Starlink AD 2.9 22:25:43 10° WSW 22:28:33 65° NW 22:31:23 10° NE
Cosmos 2154 Rocket 4.3 22:22:43 10° SSE 22:28:39 45° E 22:34:33 10° NNE
Starlink Y 2.9 22:26:09 10° WSW 22:28:59 64° NW 22:31:48 10° NE
Starlink AG 2.9 22:26:21 10° WSW 22:29:10 64° NW 22:32:01 10° NE
Starlink W 2.9 22:26:35 10° WSW 22:29:24 63° NW 22:32:13 10° NE
Starlink AJ 2.9 22:26:44 10° WSW 22:29:34 63° NW 22:32:23 10° NE
Starlink AM 2.9 22:27:08 10° WSW 22:29:57 62° NW 22:32:46 10° NE
Starlink AP 2.9 22:27:21 10° WSW 22:30:09 62° NW 22:32:59 10° NE
Starlink AA 2.9 22:27:33 10° WSW 22:30:22 62° NW 22:33:12 10° NE
Starlink AF 3.0 22:27:49 10° WSW 22:30:38 61° NW 22:33:29 10° NE
Starlink AB 3.0 22:28:00 10° WSW 22:30:48 61° NW 22:33:38 10° NE
Starlink AN 3.0 22:28:10 10° WSW 22:30:58 61° NW 22:33:48 10° NE
Cosmos 2297 Rocket 3.6 22:32:34 10° SE 22:36:15 18° E 22:39:53 10° ENE
Cosmos 2058 Rocket 3.4 22:32:26 10° NNW 22:36:47 70° W 22:41:07 10° S
CORIOLIS 4.2 22:31:43 10° SSE 22:37:07 86° W 22:42:31 10° NNW
Starlink AR 3.2 22:35:56 10° WSW 22:38:20 42° NW 22:40:39 11° NE
Starlink T 3.3 22:36:17 10° WSW 22:39:03 49° NW 22:41:40 11° NE
Starlink N 3.3 22:37:00 10° WSW 22:39:44 48° NW 22:42:20 11° NE
Starlink Q 3.4 22:38:41 10° WSW 22:41:26 46° NW 22:43:58 12° NE
Starlink P 3.4 22:39:45 10° WSW 22:42:29 45° NW 22:44:59 12° NE
Starlink U 3.5 22:41:02 10° WSW 22:43:46 44° NW 22:46:13 12° NE
NOAA 12 4.1 22:38:42 10° SSE 22:43:55 87° ENE 22:49:11 10° NNW
Cosmos 2360 Rocket 3.5 22:38:54 10° NW 22:44:16 46° WSW 22:49:36 10° S
Starlink B 3.5 22:42:20 10° WSW 22:45:03 42° NW 22:47:27 13° NE
Cosmos 1602 Rocket 3.6 22:41:28 10° S 22:45:46 55° E 22:50:04 10° NNE
Cosmos 1610 Rocket 4.4 22:39:51 10° S 22:45:54 67° E 22:51:59 10° NNE
Cosmos 2227 Rocket 3.4 22:43:54 10° SSE 22:47:58 21° E 22:51:03 14° ENE
COSMOS 2428 2.7 22:42:25 10° NNW 22:48:08 62° ENE 22:53:48 10° SE
Starlink D 3.7 22:46:16 10° WSW 22:49:00 39° NNW 22:51:17 13° NE
Starlink S 3.7 22:47:31 10° WSW 22:50:15 38° NNW 22:52:29 14° NE
DELTA 2 R/B (1) 4.4 22:45:05 10° SW 22:50:17 41° SSE 22:54:44 14° E
CZ-4C R/B 3.2 22:44:13 10° NNW 22:51:15 50° NE 22:59:12 10° ESE
Starlink C 3.8 22:48:43 10° WSW 22:51:26 37° NNW 22:53:37 14° NNE
Okean-O 2.6 22:47:42 10° SSE 22:52:08 84° ENE 22:56:35 10° NNW
ADEOS Rocket 4.3 22:46:58 10° NE 22:52:08 24° E 22:57:38 10° SE
Starlink E 3.8 22:49:58 10° WSW 22:52:41 36° NNW 22:54:49 14° NNE
Cosmos 2074 Rocket 4.4 22:46:28 10° SSW 22:52:43 70° W 22:59:01 10° N
Cosmos 2219 Rocket 2.1 22:47:32 10° NNW 22:53:14 71° ENE 22:58:51 10° SSE
Starlink J 3.9 22:51:14 10° WSW 22:53:56 35° NNW 22:56:01 15° NNE
USA 32 4.4 22:49:30 10° SSE 22:54:20 39° E 22:59:10 10° NNE
Starlink V 3.9 22:52:28 10° W 22:55:09 35° NNW 22:57:12 15° NNE
COSMO-SKYMED 1 2.5 22:51:30 10° NNE 22:55:51 68° ESE 23:00:09 10° S
Starlink H 3.9 22:53:44 10° W 22:56:25 34° NNW 22:58:24 15° NNE
Starlink F 4.0 22:55:01 10° W 22:57:40 33° NNW 22:59:37 15° NNE
Starlink G 4.0 22:56:16 10° W 22:58:55 32° NNW 23:00:49 16° NNE
Starlink L 4.1 22:57:32 10° W 23:00:11 32° NNW 23:02:01 16° NNE
Starlink A 4.1 22:58:49 10° W 23:01:27 31° NNW 23:03:14 16° NNE
Cosmos 1758 Rocket 4.1 22:58:31 10° SSE 23:02:25 34° E 23:06:20 10° NNE
Starlink R 4.1 23:00:06 10° W 23:02:43 30° NNW 23:04:28 17° NNE
Starlink K 4.2 23:01:20 10° W 23:03:57 30° NNW 23:05:39 17° NNE
Starlink M 4.2 23:02:33 10° W 23:05:10 29° NNW 23:06:49 17° NNE
CZ-2D R/B 4.0 23:01:52 10° SE 23:05:14 30° ENE 23:08:37 10° N
Cosmos 1461 2.9 23:01:28 10° NNW 23:05:50 79° ENE 23:10:21 10° SE
Cosmos 962 Rocket 4.5 23:01:44 10° S 23:07:40 58° E 23:13:41 10° NNE
Cosmos 1626 Rocket 4.1 23:05:04 10° SSW 23:09:22 61° W 23:13:40 10° N
Nadezhda 3 Rocket 4.0 23:09:15 10° N 23:15:34 87° W 23:21:54 10° S
Cosmos 1340 Rocket 2.6 23:12:01 10° N 23:15:58 78° E 23:19:56 10° SSE
Timation 2 Rocket 4.4 23:13:08 10° SW 23:19:05 60° WNW 23:25:19 10° NNE
Cosmos 1125 Rocket 3.8 23:16:04 10° SSW 23:21:13 67° WNW 23:26:25 10° NNE
TIMED 4.4 23:18:37 10° NNW 23:22:59 64° ENE 23:27:18 10° SSE
Cosmos 1300 3.5 23:20:07 10° NNW 23:23:51 53° W 23:27:33 10° S
CSL-04 Debris 4.0 23:20:20 10° SSE 23:25:41 73° ENE 23:31:05 10° N
Cosmos 1939 Rocket 2.8 23:23:09 10° SSE 23:26:56 56° ENE 23:30:47 10° N
Cosmos 1825 Rocket 3.5 23:24:42 10° S 23:29:00 62° E 23:32:15 17° NNE
Cosmos 2341 Rocket 4.0 23:23:05 10° S 23:29:27 79° E 23:35:50 10° N
Meteor 1-21 Rocket 4.1 23:27:50 10° S 23:33:22 76° E 23:39:02 10° NNE
Cosmos 2333 Rocket 3.2 23:31:32 10° NW 23:37:01 48° WSW 23:42:25 10° S
ISS -1.8 23:35:22 10° S 23:36:54 18° SSE 23:36:54 18° SSE
Cosmos 1269 Rocket 3.9 23:32:52 10° NNW 23:38:09 70° ENE 23:43:24 10° SSE
SL-8 Rocket 3.9 23:31:55 10° S 23:38:09 67° E 23:44:25 10° NNE
Cosmos 2237 Rocket 2.1 23:35:29 10° NNW 23:41:05 64° ENE 23:46:35 10° SE
NOSS 0 Rocket 3.9 23:35:35 10° NNW 23:41:50 86° WSW 23:48:01 10° SSE
Meteor 2-10 Rocket 3.6 23:38:22 10° N 23:43:37 51° ENE 23:48:38 10° SSE
CZ-4 R/B 2.8 23:46:59 10° SSW 23:50:43 38° W 23:54:32 10° NNW
